When you browse on this site, cookies collect data to enhance your experience and personalize the content and advertising you see.
Visit our Privacy Policy to learn more. By continuing to use the site, you agree to this use of cookies and data.
  • In Spain
  • List of Countries
  • For 7 days
  • Water Temperature
  • Satellite Maps
  • Weather Map
  • Weather Widgets
  • user-avatar
    Login

    Hourly Weather Madison

    Today, 21 April, Sunday

    Time Temperature Precipitation Wind Pressure Humidity
    00:00 +9°C° 0 mm 2 mps 734 mmHg 64%
    01:00 +9°C° 0 mm 2 mps 734 mmHg 65%
    02:00 +9°C° 0 mm 2 mps 734 mmHg 66%
    03:00 +8°C° 0 mm 3 mps 734 mmHg 67%
    04:00 +8°C° 0 mm 3 mps 734 mmHg 68%
    05:00 +9°C° 0 mm 3 mps 734 mmHg 69%
    06:00 +9°C° 0 mm 3 mps 734 mmHg 69%
    07:00 +11°C° 0 mm 3 mps 735 mmHg 66%
    08:00 +14°C° 0 mm 4 mps 735 mmHg 63%
    09:00 +17°C° 0 mm 4 mps 736 mmHg 60%
    10:00 +19°C° 0 mm 5 mps 736 mmHg 59%
    11:00 +20°C° 0 mm 5 mps 736 mmHg 59%
    12:00 +22°C° 0 mm 6 mps 736 mmHg 58%
    13:00 +22°C° 0 mm 6 mps 735 mmHg 56%
    14:00 +23°C° 0 mm 6 mps 735 mmHg 55%
    15:00 +24°C° 0 mm 6 mps 735 mmHg 53%
    16:00 +23°C° 0 mm 5 mps 735 mmHg 59%
    17:00 +22°C° 0 mm 4 mps 735 mmHg 64%
    18:00 +20°C° 0 mm 4 mps 735 mmHg 70%
    19:00 +19°C° 0 mm 4 mps 735 mmHg 72%
    20:00 +18°C° 0 mm 4 mps 735 mmHg 75%
    21:00 +15°C° 0 mm 4 mps 736 mmHg 78%
    22:00 +15°C° 0 mm 4 mps 736 mmHg 77%
    23:00 +15°C° 0 mm 4 mps 736 mmHg 77%

    Tomorrow, 22 April, Monday

    Time Temperature Precipitation Wind Pressure Humidity
    00:00 +15°C° 0 mm 5 mps 736 mmHg 76%
    01:00 +15°C° 0 mm 5 mps 736 mmHg 78%
    02:00 +15°C° 0 mm 5 mps 735 mmHg 80%
    03:00 +15°C° 0 mm 5 mps 735 mmHg 82%
    04:00 +14°C° 0 mm 4 mps 735 mmHg 85%
    05:00 +14°C° 0 mm 4 mps 735 mmHg 88%
    06:00 +13°C° 0 mm 4 mps 735 mmHg 91%
    07:00 +15°C° 0 mm 4 mps 735 mmHg 85%
    08:00 +17°C° 0 mm 5 mps 735 mmHg 80%
    09:00 +20°C° 0 mm 5 mps 736 mmHg 74%
    10:00 +19°C° 0.9 mm 5 mps 735 mmHg 77%
    11:00 +19°C° 0.9 mm 4 mps 735 mmHg 80%
    12:00 +19°C° 0.9 mm 4 mps 735 mmHg 83%
    13:00 +19°C° 0.1 mm 4 mps 734 mmHg 83%
    14:00 +19°C° 0.1 mm 4 mps 734 mmHg 83%
    15:00 +20°C° 0.1 mm 4 mps 733 mmHg 83%
    16:00 +19°C° 0.8 mm 4 mps 733 mmHg 86%
    17:00 +19°C° 0.8 mm 4 mps 732 mmHg 89%
    18:00 +17°C° 0.8 mm 5 mps 732 mmHg 92%
    19:00 +18°C° 0.6 mm 4 mps 732 mmHg 93%
    20:00 +18°C° 0.6 mm 4 mps 732 mmHg 94%
    21:00 +18°C° 0.6 mm 4 mps 732 mmHg 96%
    22:00 +17°C° 1.6 mm 4 mps 732 mmHg 96%
    23:00 +17°C° 1.6 mm 4 mps 732 mmHg 96%

    Day after tomorrow, 23 April, Tuesday

    Time Temperature Precipitation Wind Pressure Humidity
    00:00 +15°C° 1.6 mm 4 mps 732 mmHg 97%
    01:00 +13°C° 0.2 mm 4 mps 733 mmHg 95%
    02:00 +10°C° 0.2 mm 5 mps 733 mmHg 93%
    03:00 +8°C° 0.2 mm 6 mps 734 mmHg 92%
    04:00 +7°C° 0.1 mm 6 mps 735 mmHg 91%
    05:00 +7°C° 0.1 mm 5 mps 735 mmHg 90%
    06:00 +6°C° 0.1 mm 5 mps 736 mmHg 89%
    07:00 +7°C° 0 mm 5 mps 737 mmHg 86%
    08:00 +7°C° 0 mm 5 mps 738 mmHg 84%
    09:00 +7°C° 0 mm 5 mps 738 mmHg 82%
    10:00 +8°C° 0 mm 5 mps 739 mmHg 79%
    11:00 +9°C° 0 mm 5 mps 739 mmHg 77%
    12:00 +10°C° 0 mm 4 mps 739 mmHg 75%
    13:00 +12°C° 0 mm 4 mps 739 mmHg 69%
    14:00 +13°C° 0 mm 4 mps 739 mmHg 63%
    15:00 +15°C° 0 mm 4 mps 739 mmHg 58%
    16:00 +14°C° 0 mm 3 mps 739 mmHg 61%
    17:00 +15°C° 0 mm 2 mps 739 mmHg 65%
    18:00 +14°C° 0 mm 2 mps 739 mmHg 68%
    19:00 +12°C° 0 mm 2 mps 740 mmHg 71%
    20:00 +11°C° 0 mm 1 mps 740 mmHg 75%
    21:00 +9°C° 0 mm 1 mps 740 mmHg 78%
    22:00 +8°C° 0 mm 2 mps 740 mmHg 83%
    23:00 +7°C° 0 mm 2 mps 741 mmHg 88%

    24 April, Wednesday

    Time Temperature Precipitation Wind Pressure Humidity
    00:00 +5°C° 0 mm 3 mps 741 mmHg 93%
    01:00 +5°C° 0 mm 2 mps 741 mmHg 92%
    02:00 +5°C° 0 mm 2 mps 741 mmHg 91%
    03:00 +4°C° 0 mm 2 mps 740 mmHg 90%
    04:00 +4°C° 0 mm 2 mps 741 mmHg 87%
    05:00 +4°C° 0 mm 2 mps 741 mmHg 84%
    06:00 +4°C° 0 mm 2 mps 741 mmHg 82%
    07:00 +6°C° 0 mm 2 mps 741 mmHg 74%
    08:00 +9°C° 0 mm 2 mps 741 mmHg 66%
    09:00 +11°C° 0 mm 3 mps 742 mmHg 58%
    10:00 +12°C° 0 mm 3 mps 741 mmHg 56%
    11:00 +14°C° 0 mm 2 mps 741 mmHg 53%
    12:00 +16°C° 0 mm 2 mps 740 mmHg 51%
    13:00 +16°C° 0 mm 2 mps 740 mmHg 50%
    14:00 +17°C° 0 mm 2 mps 739 mmHg 48%
    15:00 +17°C° 0 mm 2 mps 738 mmHg 47%
    16:00 +16°C° 0 mm 2 mps 738 mmHg 52%
    17:00 +15°C° 0 mm 2 mps 738 mmHg 58%
    18:00 +14°C° 0 mm 2 mps 738 mmHg 63%
    19:00 +13°C° 0 mm 2 mps 738 mmHg 64%
    20:00 +12°C° 0 mm 2 mps 738 mmHg 66%
    21:00 +9°C° 0 mm 2 mps 738 mmHg 67%
    22:00 +9°C° 0 mm 2 mps 737 mmHg 67%
    23:00 +8°C° 0 mm 2 mps 737 mmHg 66%

    25 April, Thursday

    Time Temperature Precipitation Wind Pressure Humidity
    00:00 +7°C° 0 mm 2 mps 737 mmHg 65%
    01:00 +7°C° 0 mm 2 mps 736 mmHg 66%
    02:00 +7°C° 0 mm 2 mps 736 mmHg 67%
    03:00 +7°C° 0 mm 2 mps 736 mmHg 68%
    04:00 +7°C° 0 mm 2 mps 736 mmHg 71%
    05:00 +6°C° 0 mm 2 mps 736 mmHg 74%
    06:00 +6°C° 0 mm 2 mps 736 mmHg 77%
    07:00 +9°C° 0 mm 3 mps 736 mmHg 72%
    08:00 +12°C° 0 mm 3 mps 736 mmHg 66%
    09:00 +14°C° 0 mm 4 mps 736 mmHg 61%
    10:00 +17°C° 0 mm 4 mps 735 mmHg 60%
    11:00 +19°C° 0 mm 4 mps 735 mmHg 59%
    12:00 +20°C° 0 mm 5 mps 735 mmHg 57%
    13:00 +20°C° 0.2 mm 5 mps 735 mmHg 59%
    14:00 +20°C° 0.2 mm 5 mps 735 mmHg 61%
    15:00 +21°C° 0.2 mm 5 mps 735 mmHg 63%
    16:00 +19°C° 0.1 mm 5 mps 736 mmHg 66%
    17:00 +17°C° 0.1 mm 5 mps 736 mmHg 69%
    18:00 +17°C° 0.1 mm 4 mps 736 mmHg 72%
    19:00 +14°C° 0 mm 4 mps 737 mmHg 75%
    20:00 +13°C° 0 mm 3 mps 738 mmHg 78%
    21:00 +12°C° 0 mm 2 mps 738 mmHg 81%
    22:00 +10°C° 0 mm 2 mps 739 mmHg 77%
    23:00 +9°C° 0 mm 2 mps 739 mmHg 73%

    26 April, Friday

    Time Temperature Precipitation Wind Pressure Humidity
    00:00 +8°C° 0 mm 2 mps 739 mmHg 70%
    01:00 +8°C° 0 mm 2 mps 739 mmHg 67%
    02:00 +8°C° 0 mm 1 mps 739 mmHg 64%
    03:00 +8°C° 0 mm 1 mps 739 mmHg 62%
    04:00 +8°C° 0 mm 1 mps 740 mmHg 63%
    05:00 +7°C° 0 mm 2 mps 741 mmHg 64%
    06:00 +7°C° 0 mm 2 mps 741 mmHg 65%
    07:00 +10°C° 0 mm 2 mps 741 mmHg 62%
    08:00 +12°C° 0 mm 3 mps 742 mmHg 59%
    09:00 +16°C° 0 mm 3 mps 742 mmHg 56%
    10:00 +17°C° 0 mm 3 mps 742 mmHg 53%
    11:00 +18°C° 0 mm 3 mps 742 mmHg 50%
    12:00 +20°C° 0 mm 3 mps 742 mmHg 46%
    13:00 +20°C° 0 mm 3 mps 742 mmHg 47%
    14:00 +20°C° 0 mm 3 mps 742 mmHg 47%
    15:00 +21°C° 0 mm 3 mps 742 mmHg 48%
    16:00 +20°C° 0 mm 3 mps 742 mmHg 53%
    17:00 +19°C° 0 mm 2 mps 741 mmHg 59%
    18:00 +19°C° 0 mm 1 mps 741 mmHg 64%
    19:00 +16°C° 0 mm 1 mps 742 mmHg 68%
    20:00 +14°C° 0 mm 1 mps 742 mmHg 73%
    21:00 +12°C° 0 mm 2 mps 742 mmHg 77%
    22:00 +10°C° 0 mm 2 mps 742 mmHg 77%
    23:00 +9°C° 0 mm 2 mps 742 mmHg 77%
    Show more